When you browse on this site, cookies collect data to enhance your experience and personalize the content and advertising you see.
Visit our Privacy Policy to learn more. By continuing to use the site, you agree to this use of cookies and data.
  • En España
  • Lista de países
  • Para 7 días
  • Temperatura del agua
  • El tiempo en el mapa
  • Informadores
  • user-avatar
    Iniciar sesión

    Tiempo cada hora Curicó

    Hoy, 19 Enero, Domingo

    Tiempo Temperatura Precipitaciones Viento Presión Humedad
    00:00 +21°C° 0 mm 1 mps 738 mmHg 57%
    01:00 +20°C° 0 mm 1 mps 738 mmHg 58%
    02:00 +19°C° 0 mm 1 mps 738 mmHg 64%
    03:00 +16°C° 0 mm 0 mps 738 mmHg 70%
    04:00 +14°C° 0 mm 0 mps 738 mmHg 76%
    05:00 +17°C° 0 mm 0 mps 739 mmHg 66%
    06:00 +22°C° 0 mm 1 mps 739 mmHg 56%
    07:00 +24°C° 0 mm 1 mps 739 mmHg 46%
    08:00 +27°C° 0 mm 1 mps 740 mmHg 39%
    09:00 +31°C° 0 mm 2 mps 740 mmHg 32%
    10:00 +35°C° 0 mm 3 mps 740 mmHg 24%
    11:00 +37°C° 0 mm 3 mps 740 mmHg 22%
    12:00 +38°C° 0 mm 3 mps 740 mmHg 19%
    13:00 +41°C° 0 mm 4 mps 740 mmHg 16%
    14:00 +40°C° 0 mm 4 mps 740 mmHg 20%
    15:00 +37°C° 0 mm 4 mps 740 mmHg 23%
    16:00 +36°C° 0 mm 5 mps 740 mmHg 26%
    17:00 +32°C° 0 mm 4 mps 740 mmHg 34%
    18:00 +28°C° 0 mm 3 mps 740 mmHg 41%
    19:00 +25°C° 0 mm 2 mps 741 mmHg 49%
    20:00 +21°C° 0 mm 2 mps 741 mmHg 58%
    21:00 +20°C° 0 mm 1 mps 741 mmHg 67%
    22:00 +18°C° 0 mm 1 mps 741 mmHg 76%
    23:00 +16°C° 0 mm 1 mps 740 mmHg 79%

    Mañana, 20 Enero, Lunes

    Tiempo Temperatura Precipitaciones Viento Presión Humedad
    00:00 +15°C° 0 mm 0 mps 740 mmHg 81%
    01:00 +14°C° 0 mm 0 mps 740 mmHg 84%
    02:00 +14°C° 0 mm 0 mps 740 mmHg 85%
    03:00 +13°C° 0 mm 0 mps 739 mmHg 85%
    04:00 +13°C° 0 mm 0 mps 739 mmHg 86%
    05:00 +15°C° 0 mm 0 mps 740 mmHg 77%
    06:00 +18°C° 0 mm 0 mps 740 mmHg 68%
    07:00 +22°C° 0 mm 1 mps 740 mmHg 59%
    08:00 +25°C° 0 mm 1 mps 740 mmHg 48%
    09:00 +29°C° 0 mm 2 mps 740 mmHg 37%
    10:00 +33°C° 0 mm 3 mps 740 mmHg 27%
    11:00 +35°C° 0 mm 3 mps 740 mmHg 22%
    12:00 +38°C° 0 mm 3 mps 740 mmHg 18%
    13:00 +40°C° 0 mm 3 mps 740 mmHg 13%
    14:00 +41°C° 0 mm 4 mps 740 mmHg 14%
    15:00 +41°C° 0 mm 4 mps 740 mmHg 14%
    16:00 +41°C° 0 mm 4 mps 740 mmHg 14%
    17:00 +35°C° 0 mm 3 mps 740 mmHg 22%
    18:00 +30°C° 0 mm 2 mps 741 mmHg 30%
    19:00 +26°C° 0 mm 2 mps 741 mmHg 38%
    20:00 +24°C° 0 mm 1 mps 741 mmHg 45%
    21:00 +21°C° 0 mm 1 mps 741 mmHg 52%
    22:00 +17°C° 0 mm 0 mps 741 mmHg 59%
    23:00 +16°C° 0 mm 0 mps 740 mmHg 61%

    Pasado mañana, 21 Enero, Martes

    Tiempo Temperatura Precipitaciones Viento Presión Humedad
    00:00 +15°C° 0 mm 0 mps 740 mmHg 63%
    01:00 +15°C° 0 mm 0 mps 740 mmHg 65%
    02:00 +14°C° 0 mm 0 mps 740 mmHg 66%
    03:00 +14°C° 0 mm 0 mps 740 mmHg 67%
    04:00 +13°C° 0 mm 0 mps 740 mmHg 68%
    05:00 +16°C° 0 mm 0 mps 740 mmHg 58%
    06:00 +21°C° 0 mm 1 mps 740 mmHg 49%
    07:00 +24°C° 0 mm 1 mps 740 mmHg 39%
    08:00 +27°C° 0 mm 1 mps 740 mmHg 31%
    09:00 +31°C° 0 mm 2 mps 740 mmHg 24%
    10:00 +35°C° 0 mm 3 mps 740 mmHg 17%
    11:00 +37°C° 0 mm 3 mps 740 mmHg 14%
    12:00 +40°C° 0 mm 3 mps 740 mmHg 11%
    13:00 +43°C° 0 mm 4 mps 740 mmHg 8%
    14:00 +42°C° 0 mm 4 mps 739 mmHg 9%
    15:00 +42°C° 0 mm 4 mps 739 mmHg 10%
    16:00 +42°C° 0 mm 5 mps 739 mmHg 11%
    17:00 +36°C° 0 mm 4 mps 740 mmHg 18%
    18:00 +31°C° 0 mm 3 mps 740 mmHg 25%
    19:00 +26°C° 0 mm 2 mps 740 mmHg 32%
    20:00 +24°C° 0 mm 1 mps 740 mmHg 40%
    21:00 +21°C° 0 mm 1 mps 740 mmHg 48%
    22:00 +18°C° 0 mm 1 mps 740 mmHg 55%
    23:00 +16°C° 0 mm 1 mps 740 mmHg 60%

    22 Enero, Miércoles

    Tiempo Temperatura Precipitaciones Viento Presión Humedad
    00:00 +14°C° 0 mm 0 mps 740 mmHg 64%
    01:00 +13°C° 0 mm 0 mps 739 mmHg 68%
    02:00 +13°C° 0 mm 0 mps 739 mmHg 69%
    03:00 +13°C° 0 mm 0 mps 739 mmHg 71%
    04:00 +12°C° 0 mm 0 mps 739 mmHg 72%
    05:00 +16°C° 0 mm 1 mps 740 mmHg 64%
    06:00 +19°C° 0 mm 1 mps 740 mmHg 56%
    07:00 +21°C° 0 mm 1 mps 740 mmHg 49%
    08:00 +25°C° 0 mm 1 mps 740 mmHg 41%
    09:00 +28°C° 0 mm 2 mps 740 mmHg 33%
    10:00 +31°C° 0 mm 2 mps 740 mmHg 25%
    11:00 +34°C° 0 mm 2 mps 740 mmHg 22%
    12:00 +36°C° 0 mm 3 mps 740 mmHg 20%
    13:00 +38°C° 0 mm 4 mps 740 mmHg 17%
    14:00 +38°C° 0 mm 4 mps 739 mmHg 19%
    15:00 +37°C° 0 mm 5 mps 739 mmHg 22%
    16:00 +36°C° 0 mm 5 mps 739 mmHg 24%
    17:00 +32°C° 0 mm 4 mps 739 mmHg 35%
    18:00 +27°C° 0 mm 3 mps 740 mmHg 45%
    19:00 +23°C° 0 mm 2 mps 740 mmHg 55%
    20:00 +21°C° 0 mm 1 mps 740 mmHg 63%
    21:00 +19°C° 0 mm 1 mps 740 mmHg 71%
    22:00 +16°C° 0 mm 1 mps 740 mmHg 79%
    23:00 +14°C° 0 mm 0 mps 740 mmHg 81%

    23 Enero, Jueves

    Tiempo Temperatura Precipitaciones Viento Presión Humedad
    00:00 +14°C° 0 mm 0 mps 740 mmHg 82%
    01:00 +13°C° 0 mm 0 mps 740 mmHg 84%
    02:00 +13°C° 0 mm 0 mps 740 mmHg 85%
    03:00 +13°C° 0 mm 0 mps 740 mmHg 85%
    04:00 +13°C° 0 mm 0 mps 740 mmHg 86%
    05:00 +15°C° 0 mm 0 mps 741 mmHg 77%
    06:00 +19°C° 0 mm 1 mps 741 mmHg 68%
    07:00 +21°C° 0 mm 1 mps 742 mmHg 60%
    08:00 +24°C° 0 mm 1 mps 742 mmHg 50%
    09:00 +27°C° 0 mm 2 mps 742 mmHg 41%
    10:00 +31°C° 0 mm 2 mps 743 mmHg 31%
    11:00 +33°C° 0 mm 3 mps 742 mmHg 28%
    12:00 +35°C° 0 mm 3 mps 742 mmHg 25%
    13:00 +37°C° 0 mm 4 mps 742 mmHg 22%
    14:00 +36°C° 0 mm 4 mps 742 mmHg 24%
    15:00 +35°C° 0 mm 5 mps 742 mmHg 26%
    16:00 +34°C° 0 mm 5 mps 742 mmHg 28%
    17:00 +30°C° 0 mm 4 mps 742 mmHg 38%
    18:00 +26°C° 0 mm 3 mps 742 mmHg 48%
    19:00 +21°C° 0 mm 2 mps 742 mmHg 57%
    20:00 +20°C° 0 mm 1 mps 742 mmHg 66%
    21:00 +18°C° 0 mm 1 mps 742 mmHg 74%
    22:00 +14°C° 0 mm 0 mps 742 mmHg 83%
    23:00 +14°C° 0 mm 0 mps 742 mmHg 84%

    24 Enero, Viernes

    Tiempo Temperatura Precipitaciones Viento Presión Humedad
    00:00 +13°C° 0 mm 0 mps 742 mmHg 85%
    01:00 +13°C° 0 mm 0 mps 741 mmHg 87%
    02:00 +12°C° 0 mm 0 mps 741 mmHg 87%
    03:00 +12°C° 0 mm 0 mps 741 mmHg 87%
    04:00 +12°C° 0 mm 0 mps 741 mmHg 88%
    05:00 +14°C° 0 mm 0 mps 742 mmHg 79%
    06:00 +16°C° 0 mm 0 mps 742 mmHg 71%
    07:00 +18°C° 0 mm 0 mps 742 mmHg 63%
    08:00 +24°C° 0 mm 1 mps 742 mmHg 52%
    09:00 +27°C° 0 mm 1 mps 742 mmHg 42%
    10:00 +31°C° 0 mm 2 mps 742 mmHg 31%
    11:00 +34°C° 0 mm 3 mps 742 mmHg 25%
    12:00 +36°C° 0 mm 3 mps 742 mmHg 20%
    13:00 +38°C° 0 mm 4 mps 742 mmHg 14%
    14:00 +38°C° 0 mm 4 mps 742 mmHg 13%
    15:00 +38°C° 0 mm 4 mps 742 mmHg 13%
    16:00 +38°C° 0 mm 4 mps 741 mmHg 12%
    17:00 +34°C° 0 mm 3 mps 742 mmHg 20%
    18:00 +29°C° 0 mm 2 mps 742 mmHg 28%
    19:00 +25°C° 0 mm 1 mps 742 mmHg 36%
    20:00 +23°C° 0 mm 1 mps 742 mmHg 42%
    21:00 +21°C° 0 mm 1 mps 742 mmHg 48%
    22:00 +17°C° 0 mm 0 mps 742 mmHg 53%
    23:00 +16°C° 0 mm 0 mps 742 mmHg 55%
    Mostrar más